Montreal Mirabel, Quebec

9:00 AM EDT on April 26, 2017 (GMT -0400)
Montreal Mirabel

Weather History for CYMX - August, 2013

Change the Weather History Date:

Saturday, August 17, 2013

  Actual Average Record
Temperature  
Mean Temperature 60 °F -  
Max Temperature 73 °F 75 °F 86 °F (2015)
Min Temperature 46 °F 54 °F 46 °F (2013)
Degree Days  
Heating Degree Days 6    
Growing Degree Days 10 (Base 50)    
Moisture  
Dew Point 52 °F    
Average Humidity 76    
Maximum Humidity 100    
Minimum Humidity 53    
Precipitation  
Precipitation 0.00 in - - ()
Sea Level Pressure  
Sea Level Pressure 30.29 in    
Wind  
Wind Speed 3 mph ()    
Max Wind Speed 12 mph    
Max Gust Speed -    
Averages and records for this station are not official NWS values.
T = Trace of Precipitation, MM = Missing Value Source: Averaged Metar Reports

Daily Weather History Graph

Daily Weather History Graph

Search for Another Location

Airport or City:

Trip Planner

Search our weather history database for the weather conditions in past years. The results will help you decide how hot, cold, wet, or windy it might be!

Date:

Astronomy

Aug. 17, 2013 Rise Set
Actual Time 5:59 AM EDT 8:00 PM EDT
Civil Twilight 5:26 AM EDT 8:32 PM EDT
Nautical Twilight 4:47 AM EDT 9:11 PM EDT
Astronomical Twilight 4:03 AM EDT 9:55 PM EDT
Moon 5:18 PM EDT (8/17) 1:53 AM EDT (8/17)
Length of Visible Light 15h 05m
Length of Day
14h 01m
Waxing Gibbous, 84% of the Moon is Illuminated
Aug 17
Waxing Gibbous
Aug 20
Full
Aug 28
Last Quarter
Sep 5
New
Sep 12
First Quarter

Hourly Weather History & Observations

Time (EDT) Temp. Dew Point Humidity Pressure Visibility Wind Dir Wind Speed Gust Speed Precip Events Conditions
12:00 AM 53.6 °F 50.0 °F 88% 30.25 in 25.0 mi NNW 2.3 mph - N/A   Partly Cloudy
1:00 AM 51.8 °F 50.0 °F 94% 30.26 in 25.0 mi Calm Calm - N/A   Partly Cloudy
2:00 AM 53.6 °F 50.0 °F 88% 30.27 in 25.0 mi North 2.3 mph - N/A   Partly Cloudy
3:00 AM 53.6 °F 48.2 °F 82% 30.27 in 25.0 mi North 3.5 mph - N/A   Partly Cloudy
4:00 AM 48.2 °F 48.2 °F 100% 30.29 in 25.0 mi Calm Calm - N/A   Partly Cloudy
5:00 AM 48.2 °F 48.2 °F 100% 30.30 in 25.0 mi Calm Calm - N/A   Partly Cloudy
6:00 AM 46.4 °F 46.4 °F 100% 30.32 in 45.0 mi Calm Calm - N/A   Partly Cloudy
7:00 AM 48.2 °F 48.2 °F 100% 30.33 in 45.0 mi NNE 2.3 mph - N/A   Partly Cloudy
8:00 AM 55.4 °F 50.0 °F 82% 30.33 in 45.0 mi North 2.3 mph - N/A   Partly Cloudy
9:00 AM 60.8 °F 51.8 °F 72% 30.35 in 45.0 mi NE 2.3 mph - N/A   Partly Cloudy
10:00 AM 64.4 °F 51.8 °F 64% 30.35 in 45.0 mi Variable 2.3 mph - N/A   Partly Cloudy
11:00 AM 66.2 °F 51.8 °F 60% 30.34 in 45.0 mi NE 3.5 mph - N/A   Partly Cloudy
12:00 PM 68.0 °F 53.6 °F 60% 30.32 in 45.0 mi SSE 2.3 mph - N/A   Partly Cloudy
1:00 PM 69.8 °F 55.4 °F 60% 30.31 in 45.0 mi South 4.6 mph - N/A   Partly Cloudy
2:00 PM 71.6 °F 55.4 °F 57% 30.31 in 45.0 mi WSW 5.8 mph - N/A   Partly Cloudy
3:00 PM 73.4 °F 57.2 °F 57% 30.29 in 30.0 mi South 5.8 mph - N/A   Partly Cloudy
4:00 PM 73.4 °F 57.2 °F 57% 30.28 in 45.0 mi South 11.5 mph - N/A   Partly Cloudy
5:00 PM 73.4 °F 55.4 °F 53% 30.28 in 45.0 mi SSW 9.2 mph - N/A   Scattered Clouds
6:00 PM 71.6 °F 53.6 °F 53% 30.27 in 45.0 mi SW 6.9 mph - N/A   Scattered Clouds
7:00 PM 69.8 °F 55.4 °F 60% 30.27 in 30.0 mi SSW 3.5 mph - N/A   Scattered Clouds
8:00 PM 64.4 °F 55.4 °F 73% 30.26 in 25.0 mi SSW 3.5 mph - N/A   Partly Cloudy
9:00 PM 59.0 °F 53.6 °F 82% 30.27 in 25.0 mi SSW 5.8 mph - N/A   Partly Cloudy
10:00 PM 57.2 °F 55.4 °F 94% 30.27 in 25.0 mi WNW 3.5 mph - N/A   Partly Cloudy
11:00 PM 55.4 °F 53.6 °F 94% 30.27 in 25.0 mi Calm Calm - N/A   Clear